DECAYED
Showing default

YAOGAN 6, 34839 (Decayed)

Orbit data source: Space-Track

YAOGAN 6, 34839 was a payload satellite owned by PLA GAD (CN) in LEO that was launched on Wed, 22 Apr 2009 UTC via a CHANG ZHENG 2C launch vehicle from the Taiyaun Space Center, China (TSC). Payload-class satellites include a variety of spacecraft equipped with specific instruments for various scientific and technological missions. These include communications satellites like Starlink; space stations such as the ISS; scientific satellites like the Hubble; Earth observation satellites from companies like Planet Labs, Umbra, and HawkEye 360; GPS; miniature CubeSats for education and research; and military/defense satellites.

Not visible in the next 10 days
Identifier
34839, 2009-021A
Orbit
Decayed
Country
Flag of CNCN / PRC
Related business
Manufacturer
SAST
Mission
Decayed Civil Radar Imaging
Bus & Motor
JB-7, Unknown motor
Mass
~2,000 kg wet, ~2,000 kg dry
Launch date (UTC)
2009-04-22 (17 years ago)
Launch vehicle
CHANG ZHENG 2C
Launch site
Taiyaun Space Center, China (TSC)
Object type
Payload
Rocket body
Debris
Shape & HBR
Box + 2 Pan, 2.0 m
Radar Cross Section
5.141 m², Large (>1 m²)

Expand to show TLE details & history
Last TLE update: 7 months ago

TLE from 7 months ago
0 YAOGAN 6
1 34839U 09021A   25168.22293757  .17838157  25147-5  10000-3 0  9996
2 34839  97.1678 151.1992 0011592 251.8613 231.0861 16.54800084900690
Epoch: 2025-06-17T05:21Z
TLE epoch observation values (Epoch: 2025-06-17T05:21:01.806Z)
Latitude
56.57824°
Longitude
-3.85918°
Altitude
141.029 km
Speed
7.824 km/s
True Right ascension
22h 48m 28s
True Declination
56° 24' 18"
Sunlit
Object was in daylight at epoch
Visualization orbit readout
Latitude
Unknown
Longitude
Unknown
Altitude
Unknown
Speed
Unknown
Apparent Right ascension
Unknown
Apparent Declination
Unknown
Sunlit
N/A
Visualization observer readout
Local Sidereal Time
21:21:47
Azimuth
Unknown
Elevation
Unknown
Doppler factor
Unknown
Orbital elements
Apogee altitude
131.041 km
Perigee altitude
115.967 km
Semi-major axis
6,501.641 km
Eccentricity
0.00116
Inclination
97.1678°
RAAN
151.1992°
Arg. of periapsis
251.8613°
True anomaly
230.98284°
Mean anomaly
231.0861°
Eccentric anomaly
231.03446°
Mean motion
4.14008 °/min
Orbital period
86.95 mins
BSTAR
0.0001
Loading maneuver chart data...
Computing Atmospheric mass density...
Loading historical data...
Loading historical data...
Loading historical data...
Loading historical data...
Loading historical data...
Loading historical data...
Loading historical data...

Documentation

Showing up to 5 results
|